STARLINK-3979 (52608 NORAD) Tracking and Keplerian Element Data

This shows tracking and keplerian element data for the satellite.

Feedback or suggestion? Click here.




ElementValue
Catalog52608
NameSTARLINK-3979
Epoch Orbit130
Epoch Day192.91667824
Epoch Year2022
RAAN160.2195
Inclination53.2175
Eccentricity0.0001913
Argument of Perigee36.8231
Mean Anonmoly244.1229
Mean Motion15.16002623
Decay Rate-0.00720663
L11 52608U 22052L 22192.91667824 -.00720663 00000+0 -39794-1 0 9999
L22 52608 53.2175 160.2195 0001913 36.8231 244.1229 15.16002623 1301

Live tracking and technical data element details for STARLINK-3979 (NORAD 52608). STARLINK-3979 can be tracked NOW for your location showing map with azimuth and elevation plus other details from your city location.

Track the satellite on the map from your city or location and see movement details for azimuth, elevation, latitude, longitude, range, height, and movement on the map or in text.







IsCatalogInMostPopularTable: catalog: 52608, numindb: 7
Update: records affected: 1



GetName: 52608 STARLINK-3979

Hit Count: updated at: Sun, 14 Aug 2022 00:41:15 GMT